Time,TemperatureF,DewpointF,PressureIn,WindDirection,WindDirectionDegrees,WindSpeedMPH,WindSpeedGustMPH,Humidity,HourlyPrecipIn,Conditions,Clouds,dailyrainin,SoftwareType,DateUTC
2013-06-04 00:02:00,60.8,34.4,29.71,West,274,0.0,0.0,37,0.00,,,0.00,VWS V13.01,2013-06-04 04:02:00,
2013-06-04 00:32:00,61.3,34.8,29.72,NW,323,2.0,3.0,37,0.00,,,0.00,VWS V13.01,2013-06-04 04:32:00,
2013-06-04 01:02:00,60.8,34.4,29.72,NNW,338,3.0,4.0,37,0.00,,,0.00,VWS V13.01,2013-06-04 05:02:00,
2013-06-04 01:32:00,59.3,38.5,29.72,NNW,340,0.0,3.0,46,0.00,,,0.00,VWS V13.01,2013-06-04 05:32:00,
2013-06-04 02:02:00,58.0,35.1,29.73,NNW,340,0.0,0.0,42,0.00,,,0.00,VWS V13.01,2013-06-04 06:02:00,
2013-06-04 02:32:00,56.6,33.8,29.74,NNW,340,0.0,0.0,42,0.00,,,0.00,VWS V13.01,2013-06-04 06:32:00,
2013-06-04 03:02:00,56.2,32.8,29.74,NNW,340,0.0,0.0,41,0.00,,,0.00,VWS V13.01,2013-06-04 07:02:00,
2013-06-04 03:32:00,55.5,31.6,29.73,NNW,340,0.0,0.0,40,0.00,,,0.00,VWS V13.01,2013-06-04 07:32:00,
2013-06-04 04:02:00,54.4,30.6,29.74,NNW,340,0.0,0.0,40,0.00,,,0.00,VWS V13.01,2013-06-04 08:02:00,
2013-06-04 04:32:00,53.1,29.4,29.74,NNW,340,0.0,0.0,40,0.00,,,0.00,VWS V13.01,2013-06-04 08:32:00,
2013-06-04 05:02:00,51.5,28.0,29.74,NNW,340,0.0,0.0,40,0.00,,,0.00,VWS V13.01,2013-06-04 09:02:00,
2013-06-04 05:32:00,51.8,27.6,29.75,NNW,340,0.0,0.0,39,0.00,,,0.00,VWS V13.01,2013-06-04 09:32:00,
2013-06-04 06:02:00,53.6,28.6,29.76,NNW,340,0.0,0.0,38,0.00,,,0.00,VWS V13.01,2013-06-04 10:02:00,
2013-06-04 06:32:00,54.8,30.3,29.77,NNW,340,0.0,1.0,39,0.00,,,0.00,VWS V13.01,2013-06-04 10:32:00,
2013-06-04 07:02:00,56.8,43.1,29.77,NW,321,11.0,12.0,60,0.00,,,0.00,VWS V13.01,2013-06-04 11:02:00,
2013-06-04 07:32:00,59.2,49.4,29.78,NW,306,12.0,13.0,70,0.00,,,0.00,VWS V13.01,2013-06-04 11:32:00,
2013-06-04 08:02:00,59.9,48.5,29.77,NNW,335,7.0,17.0,66,0.00,,,0.00,VWS V13.01,2013-06-04 12:02:00,
2013-06-04 08:32:00,60.7,47.6,29.77,NNE,24,9.0,16.0,62,0.00,,,0.00,VWS V13.01,2013-06-04 12:32:00,
2013-06-04 09:02:00,61.7,49.0,29.77,WNW,299,13.0,20.0,63,0.00,,,0.00,VWS V13.01,2013-06-04 13:02:00,
2013-06-04 09:32:00,61.9,46.5,29.77,NNW,338,11.0,23.0,57,0.00,,,0.00,VWS V13.01,2013-06-04 13:32:00,
2013-06-04 10:02:00,62.7,46.8,29.78,NNW,346,16.0,27.0,56,0.00,,,0.00,VWS V13.01,2013-06-04 14:02:00,
2013-06-04 10:32:00,63.2,46.3,29.78,North,9,14.0,26.0,54,0.00,,,0.00,VWS V13.01,2013-06-04 14:32:00,
2013-06-04 11:02:00,63.2,46.3,29.78,NNW,331,16.0,29.0,54,0.00,,,0.00,VWS V13.01,2013-06-04 15:02:00,
2013-06-04 11:32:00,63.1,45.2,29.79,NNW,336,17.0,29.0,52,0.00,,,0.00,VWS V13.01,2013-06-04 15:32:00,
2013-06-04 12:02:00,63.6,46.2,29.79,NW,321,14.0,27.0,53,0.00,,,0.00,VWS V13.01,2013-06-04 16:02:00,
2013-06-04 12:32:00,61.5,46.1,29.81,NW,322,15.0,24.0,57,0.00,,,0.00,VWS V13.01,2013-06-04 16:32:00,
2013-06-04 13:02:00,61.7,46.8,29.81,NW,320,14.0,21.0,58,0.00,,,0.00,VWS V13.01,2013-06-04 17:02:00,
2013-06-04 13:32:00,62.7,46.3,29.81,NW,324,6.0,23.0,55,0.00,,,0.00,VWS V13.01,2013-06-04 17:32:00,
2013-06-04 14:02:00,62.3,46.0,29.81,NNW,345,10.0,25.0,55,0.00,,,0.00,VWS V13.01,2013-06-04 18:02:00,
2013-06-04 14:32:00,62.1,45.8,29.82,North,355,14.0,27.0,55,0.00,,,0.00,VWS V13.01,2013-06-04 18:32:00,
2013-06-04 15:02:00,63.1,45.7,29.82,NNW,338,12.0,27.0,53,0.00,,,0.00,VWS V13.01,2013-06-04 19:02:00,
2013-06-04 15:32:00,63.4,45.0,29.83,NW,326,21.0,29.0,51,0.00,,,0.00,VWS V13.01,2013-06-04 19:32:00,
2013-06-04 16:02:00,63.9,46.0,29.82,NW,309,11.0,25.0,52,0.00,,,0.00,VWS V13.01,2013-06-04 20:02:00,
2013-06-04 16:32:00,64.1,44.6,29.83,NNW,343,15.0,26.0,49,0.00,,,0.00,VWS V13.01,2013-06-04 20:32:00,
2013-06-04 17:02:00,64.2,45.2,29.83,NNW,341,15.0,21.0,50,0.00,,,0.00,VWS V13.01,2013-06-04 21:02:00,
2013-06-04 17:32:00,64.4,46.4,29.83,NW,309,12.0,21.0,52,0.00,,,0.00,VWS V13.01,2013-06-04 21:32:00,
2013-06-04 18:02:00,64.6,45.0,29.85,NNW,338,13.0,21.0,49,0.00,,,0.00,VWS V13.01,2013-06-04 22:02:00,
2013-06-04 18:32:00,65.3,45.7,29.86,NW,326,14.0,21.0,49,0.00,,,0.00,VWS V13.01,2013-06-04 22:32:00,
2013-06-04 19:02:00,65.3,45.7,29.87,NNW,337,13.0,19.0,49,0.00,,,0.00,VWS V13.01,2013-06-04 23:02:00,
2013-06-04 19:32:00,64.7,46.2,29.87,NNW,334,3.0,15.0,51,0.00,,,0.00,VWS V13.01,2013-06-04 23:32:00,
2013-06-04 20:02:00,63.7,46.3,29.89,NW,324,3.0,7.0,53,0.00,,,0.00,VWS V13.01,2013-06-05 00:02:00,
2013-06-04 20:32:00,61.6,46.2,29.91,NNW,346,3.0,6.0,57,0.00,,,0.00,VWS V13.01,2013-06-05 00:32:00,
2013-06-04 21:02:00,60.2,45.8,29.94,NNW,333,0.0,5.0,59,0.00,,,0.00,VWS V13.01,2013-06-05 01:02:00,
2013-06-04 21:32:00,58.0,45.9,29.95,North,355,1.0,6.0,64,0.00,,,0.00,VWS V13.01,2013-06-05 01:32:00,
2013-06-04 22:02:00,56.2,46.6,29.97,NNW,338,0.0,4.0,70,0.00,,,0.00,VWS V13.01,2013-06-05 02:02:00,
2013-06-04 22:32:00,56.4,46.0,29.97,NW,314,0.0,4.0,68,0.00,,,0.00,VWS V13.01,2013-06-05 02:32:00,
2013-06-04 23:02:00,55.6,44.8,29.97,WNW,284,0.0,2.0,67,0.00,,,0.00,VWS V13.01,2013-06-05 03:02:00,
2013-06-04 23:32:00,54.9,44.9,29.98,NW,304,0.0,3.0,69,0.00,,,0.00,VWS V13.01,2013-06-05 03:32:00,